Regional Weather Roundup
Issued by NWS

Home | Current Version | Previous Version | Graphics & Text | Print | Product List | Glossary On
Versions: 1 2 3 4 5 6 7 8 9 10 11 12 13 14 15 16 17 18 19 20 21 22 23 24 25 26 27 28 29 30 31 32 33 34 35 36 37 38 39 40 41 42 43 44 45 46 47 48 49 50
310
ASUS43 KLOT 201208
RWRIL

ILLINOIS REGIONAL WEATHER ROUNDUP
NATIONAL WEATHER SERVICE CHICAGO/ROMEOVILLE IL
600 AM CST MON NOV 20 2017

NOTE: "FAIR" INDICATES FEW OR NO CLOUDS BELOW 12,000 FEET WITH NO
SIGNIFICANT WEATHER AND/OR OBSTRUCTIONS TO VISIBILITY.

* THESE STATIONS ARE NOT UNDER NWS QUALITY CONTROL. THEY ALSO MAY NOT
  REPORT WEATHER SUCH AS PRECIPITATION OR FOG.

ILZ001-002-007-009-015-016-024-201300-
NORTHWEST ILLINOIS

CITY           SKY/WX    TMP DP  RH WIND       PRES   REMARKS
MOLINE         CLOUDY    36  26  67 SW7       29.92F WCI  30
6HR MIN TEMP:  34; 6HR MAX TEMP:  37;

STERLING*        N/A     32  26  78 CALM        N/A
SAVANNA*       CLEAR     28  25  86 S3        29.91F
$$

ILZ003-004-008-010-011-017-018-201300-
NORTH CENTRAL ILLINOIS

CITY           SKY/WX    TMP DP  RH WIND       PRES   REMARKS
ROCKFORD       CLEAR     30  24  78 S7        29.94F WCI  23
6HR MIN TEMP:  27; 6HR MAX TEMP:  32;

FREEPORT*      CLEAR     32  26  78 S15       29.92F WCI  21
ROCHELLE*      CLEAR     28  25  88 S7        29.94F WCI  20
DE KALB*       CLEAR     28  25  89 S13       29.95F WCI  17
PERU*          PTCLDY    33  24  72 SW12      29.97F WCI  24
$$

ILZ005-006-012>014-019>023-201300-
NORTHEAST ILLINOIS

CITY           SKY/WX    TMP DP  RH WIND       PRES   REMARKS
CHICAGO-OHARE  PTCLDY    34  23  64 SW14      29.95F WCI  25
6HR MIN TEMP:  30; 6HR MAX TEMP:  34;

CHICAGO-MIDWAY PTCLDY    34  25  69 SW12      29.97F WCI  25
6HR MIN TEMP:  31; 6HR MAX TEMP:  34;

AURORA         CLEAR     30  24  78 S6        29.97F WCI  24
6HR MIN TEMP:  25; 6HR MAX TEMP:  31;

LANSING*       CLEAR     32  26  79 SW12G17   30.01S WCI  23
JOLIET*        CLEAR     33  27  77 S7        29.99F WCI  27
WAUKEGAN       CLEAR     32  24  72 SW12      29.92F WCI  23
6HR MIN TEMP:  30; 6HR MAX TEMP:  32;

DUPAGE AIRPORT CLEAR     28  25  88 S9        29.95F WCI  19
6HR MIN TEMP:  26; 6HR MAX TEMP:  29;

KANKAKEE*      CLOUDY    32  25  73 S10       30.03F WCI  24
WHEELING       CLEAR     34  25  69 SW9       29.96F WCI  27
6HR MIN TEMP:  31; 6HR MAX TEMP:  35;

MORRIS*        CLOUDY    33  25  73 SW9       29.98F WCI  25
ROMEOVILLE*    CLEAR     32  26  77 S7        29.99F WCI  26
NORTHERLY ISL    N/A     35  23  62 S13         N/A  WCI  26
$$

LMZ740>746-201300-
SOUTHERN LAKE MICHIGAN

STATION/POSITION SKY/WX   TEMP    WIND        PRES    VSBY  WAVE
                          AIR SEA DIR/SP/G                  HT/PER
                          (F)     (DEG/KT/KT) (MB)    (MI)  (FT/S)
SOUTHERN BUOY              42 49  270/ 21/ 25 1013.9          6/ 5
HARRISON CRIB              37     210/ 30/ 34   N/A
BURNHAM HARBOR             34     160/  7/ 11   N/A
CALUMET HARBOR             36     190/ 10/ 16 1014.7F
BURNS HARBOR               33     180/ 16/ 21 1015.9F
MICHIGAN CITY              34     170/ 18/ 25   N/A
$$

ILZ025>027-034>036-040-047-049-050-058-095>099-201300-
WEST-CENTRAL ILLINOIS

CITY           SKY/WX    TMP DP  RH WIND       PRES   REMARKS
QUINCY         CLEAR     38  27  64 S14       30.00S WCI  30
GALESBURG*     CLOUDY    34  28  79 S14       29.96S WCI  25
MACOMB*        CLOUDY    37  28  71 S12       30.00S WCI  29
JACKSONVILLE*  CLEAR     33  24  71 S8        30.05R WCI  26
PITTSFIELD*    CLOUDY    38  27  65 S9        30.04S WCI  31
$$

ILZ028>032-037-038-041>044-048-051>054-059>061-201300-
CENTRAL ILLINOIS

CITY           SKY/WX    TMP DP  RH WIND       PRES   REMARKS
PONTIAC        CLOUDY    35  27  73 S17       30.01F WCI  25
BLOOMINGTON    CLOUDY    32  25  75 S14       30.04F WCI  22
DECATUR        CLEAR     33  23  66 S12       30.08S WCI  24
PEORIA         CLOUDY    31  25  78 S12       30.01F WCI  22
6HR MIN TEMP:  30; 6HR MAX TEMP:  32;

LACON*         CLOUDY    35  25  67 S9        29.98F WCI  27
LINCOLN*       CLOUDY    33  26  77 S9        30.05F WCI  25
SPRINGFIELD    CLEAR     35  25  66 S13       30.06S WCI  26
6HR MIN TEMP:  33; 6HR MAX TEMP:  35;

TAYLORVILLE    CLOUDY    32  24  71 S12       30.09S WCI  23
6HR MIN TEMP:  29; 6HR MAX TEMP:  32;

$$

ILZ033-039-045-046-055>057-062-063-201300-
EAST-CENTRAL ILLINOIS

CITY           SKY/WX    TMP DP  RH WIND       PRES   REMARKS
CHAMPAIGN      CLOUDY    31  24  75 S14       30.08F WCI  21
DANVILLE*      CLOUDY    31  23  71 S13       30.07S WCI  21
RANTOUL*       CLOUDY    32  27  82 S9        30.08S WCI  24
MATTOON        CLOUDY    31  23  72 S13       30.10F WCI  21
PARIS*         CLOUDY    30  24  78 S12       30.13F WCI  20
$$

ILZ079-100>102-201300-
SOUTHWEST ILLINOIS

CITY           SKY/WX    TMP DP  RH WIND       PRES   REMARKS
ALTON          CLOUDY    33  24  69 S15       30.11S WCI  23
BELLEVILLE     CLOUDY    31  21  68 S7        30.13S WCI  24
CAHOKIA*       PTCLDY    26  21  81 CALM      30.13F
SPARTA*        CLOUDY    34  21  60 S12       30.17S WCI  25
$$

ILZ064>066-069>071-074>076-080>082-084>086-088>090-092>094-201300-
SOUTH-CENTRAL ILLINOIS

CITY           SKY/WX    TMP DP  RH WIND       PRES   REMARKS
CARBONDALE     CLOUDY    28  23  81 S6        30.19F WCI  22
6HR MIN TEMP:  23; 6HR MAX TEMP:  29;

CAIRO*         CLOUDY    30  26  85 S5        30.23S WCI  25
EFFINGHAM*     CLOUDY    30  23  75 SE5       30.16S WCI  26
MARION         CLOUDY    31  24  75 S5        30.21S WCI  26
MT. VERNON     CLOUDY    26  24  92 S5        30.18S WCI  20
CENTRALIA*     CLOUDY    33  25  72 S13       30.14F WCI  24
SALEM*         CLEAR     33  23  65 S10       30.15S WCI  25
METROPOLIS*    CLOUDY    24  23  95 CALM      30.25R
$$

ILZ067-068-072-073-078-083-087-091-201300-
SOUTHEAST ILLINOIS

CITY           SKY/WX    TMP DP  RH WIND       PRES   REMARKS
LAWRENCEVILLE  CLOUDY    28  23  81 S6        30.20S WCI  22
FLORA*         CLOUDY    28  24  83 S8        30.14F WCI  20
FAIRFIELD*     CLOUDY    28  22  78 S3        30.18S
HARRISBURG*    CLOUDY    25  23  91 CALM      30.22R
ROBINSON*      CLOUDY    27  21  79 S6        30.19S WCI  20
CARMI*         CLOUDY    25  23  91 S7        30.20S WCI  17
$$

ABBREVIATIONS USED IN REMARKS
   TC - TEMPERATURE IN CELSIUS
  WCI - WIND CHILL INDEX
   HX - HEAT INDEX
  VSB - VISIBILITY
$$





USA.gov is the U.S. government's official web portal to all federal, state and local government web resources and services.